sat.trackr.live / text

‹ back to catalog

ONEWEB-0705

NORAD 61610 · 2024-188S

PAYLOAD ACTIVE UNKNOWN

§ Identity

Operator
Country
UK
Launch date
2024-10-20
Launch site
AFWTR
Launch vehicle
Mass (kg)
RCS (m²)

Purposes: comms

External: N2YO · Heavens-Above · Gunter

§ Orbital elements

Epoch: 2026-09-19T14:31:12.140832Z

Period
109.89 min
Inclination
87.8915°
Eccentricity
0.0001324
Mean motion
13.10376401 rev/d
Perigee alt
1,220.7 km
Apogee alt
1,222.7 km
Semi-major
7,599.8 km
B*
7.1872e-4
RAAN
17.4697°
Arg perigee
134.7010°
Mean anomaly
225.4226°
Rev number
8,782

§ Raw data

ONEWEB-07051 61610U 24188S   26262.60500163  .00000264  00000+0  71872-3 0  99952 61610  87.8915  17.4697 0001324 134.7010 225.4226 13.10376401 87828

JSON: /api/v1/satellites/61610 · /tle

For live sub-satellite position, see the globe view (requires WebGL).

§ Visibility from observer

Set your observer location to see the next 7 days of passes ≥ 10°. The values pass through the URL so the page stays shareable.

No JS? Fill the form by hand. The geolocation button needs JavaScript.